STARLINK-1802, 46702

Orbit data source: Space-Track

STARLINK-1802, 46702 is a payload satellite owned by SpaceX/Seattle (US) in LEO that was launched on Sun, 18 Oct 2020 UTC via an FALCON 9 launch vehicle from the Air Force Eastern Test Range (AFETR). Payload-class satellites include a variety of spacecraft equipped with specific instruments for various scientific and technological missions. These include communications satellites like Starlink; space stations such as the ISS; scientific satellites like the Hubble; Earth observation satellites from companies like Planet Labs, Umbra, and HawkEye 360; GPS; miniature CubeSats for education and research; and military/defense satellites.

Loading next visibility...
Identifier
46702, 2020-073AJ
Orbit
LEO
Country
Flag of USUS
Related business
Manufacturer
SpaceX/Seattle
Mission
Operational Commercial Communications
Bus & Motor
STARLINK, Unknown motor
Mass
260 kg wet, ~248 kg dry
Launch date (UTC)
2020-10-18 (5 years ago)
Launch vehicle
FALCON 9
Launch site
Air Force Eastern Test Range (AFETR)
Object type
Payload
Rocket body
Debris
Shape & HBR
Box + 1 Pan, 10.1 m
Radar Cross Section
13.562 m², Large (>1 m²)

Expand to show TLE details & history
Last TLE update: 18 hours ago

TLE from 18 hours ago
0 STARLINK-1802
1 46702U 20073AJ  25303.66731294  .00000833  00000-0  74785-4 0  9991
2 46702  53.0496  85.3084 0001451  88.1606 271.9550 15.06397548277818
Epoch: 2025-10-30T16:00Z
TLE epoch observation values (Epoch: 2025-10-30T16:00:55.838Z)
Latitude
0.00007°
Longitude
165.85299°
Altitude
548.064 km
Speed
7.589 km/s
True Right ascension
05h 41m 14s
True Declination
0° 00' 00"
Sunlit
Object was in full shadow at epoch
Visualization orbit readout
Latitude
Unknown
Longitude
Unknown
Altitude
Unknown
Speed
Unknown
Apparent Right ascension
Unknown
Apparent Declination
Unknown
Sunlit
N/A
Visualization observer readout
Local Sidereal Time
05:46:43
Azimuth
Unknown
Elevation
Unknown
Doppler factor
Unknown
Orbital elements
Apogee altitude
548.495 km
Perigee altitude
546.486 km
Semi-major axis
6,925.628 km
Eccentricity
0.00015
Inclination
53.0496°
RAAN
85.3084°
Arg. of periapsis
88.1606°
True anomaly
271.93838°
Mean anomaly
271.955°
Eccentric anomaly
271.94669°
Mean motion
3.76578 °/min
Orbital period
95.6 mins
BSTAR
0.000074785
Loading maneuver chart data...
Computing Atmospheric mass density...
Loading historical data...
Loading historical data...
Loading historical data...
Loading historical data...
Loading historical data...
Loading historical data...
Loading historical data...

Documentation

Showing up to 5 results
|